User: anonymous   Login
Location: Unspecified
(0.0000°N, 0.0000°E)
Time: 03:14:49
(UTC+01:00)
Language:

H-2A R/B - Orbit

View from above orbital plane
View from above orbital plane
View from above satellite
View from above satellite

Ground track
Ground track

The orbit data is extracted from the following two-line orbital elements,

1 26899U 01038B   17080.39788224 +.00001609 +00000-0 +30134-3 0  9995
2 26899 027.9924 100.7431 7133697 130.2032 317.8590 02.47565107134347
Epoch (UTC): 21 March 2017 09:32:57
Eccentricity: 0.7133697
inclination: 27.9924°
perigee height: 238 km
apogee height: 33170 km
right ascension of ascending node: 100.7431°
argument of perigee: 130.2032°
revolutions per day: 2.47565107
mean anomaly at epoch: 317.8590°
orbit number at epoch: 13434

The dashed part of the orbit path shows where the satellite is in the earth's shadow,  

DLR